Вернуться в каталог

SL-12 DEB

АктивенHEO
NORAD 44588·DEBRIS·🇷🇺 Russia

Запущен May 20, 1999 с Baikonur Cosmodrome

Loading…

Ближайшие Пролёты (ближайшие 24 часа)

TLE

СвежийSource: Space-Track

Эпоха: Sep 14, 2026, 04:14 UTC

1 44588U 99027E   26257.17693072 -.00000099  00000-0  00000-0 0  9992
2 44588   7.4291 115.6098 3173177 170.4546 356.1424  1.46031417 68354

Отслеживайте SL-12 DEB в реальном времени с AllMySat

Download on the App Store